M0CJS Weather Reports


Display with metric or nautical units.
time (UTC)temp
F
wind
direction
speed
MPH
gust
MPH
rain 1hr
in
rain 24hr
in
rain mn
in
humidity
%
barometer
mb
20260904173056 64 270 6.0 14.0 0.00 0.80 0.80 71 1016.5
20260904172016 64 270 6.0 14.0 0.00 0.80 0.80 70 1016.3
20260904171016 64 270 6.0 12.0 0.00 0.80 0.80 71 1016.1
20260904170036 64 270 6.0 12.0 0.00 0.80 0.80 70 1016.0
20260904165016 64 270 8.0 16.0 0.00 0.80 0.80 70 1015.8
20260904164016 64 270 7.0 15.0 0.00 0.80 0.80 70 1015.7
20260904163016 64 270 6.0 12.0 0.00 0.80 0.80 71 1015.6
20260904162036 64 248 7.0 15.0 0.00 0.80 0.80 70 1015.7
20260904161016 64 270 11.0 18.0 0.00 0.80 0.80 69 1015.8
20260904160015 65 270 8.0 19.0 0.00 0.80 0.80 69 1015.6
20260904155036 65 270 9.0 18.0 0.00 0.80 0.80 69 1015.6
20260904154016 65 270 10.0 18.0 0.00 0.80 0.80 68 1015.6
20260904153016 65 270 7.0 15.0 0.00 0.80 0.80 69 1015.5
20260904152015 65 270 8.0 14.0 0.00 0.80 0.80 67 1015.7
20260904151015 66 270 8.0 17.0 0.00 0.80 0.80 68 1015.5
20260904150016 66 270 5.0 12.0 0.00 0.80 0.80 69 1015.4
20260904145016 66 270 7.0 15.0 0.00 0.80 0.80 68 1015.1
20260904144035 66 270 8.0 15.0 0.00 0.80 0.80 67 1015.0
20260904143015 66 293 11.0 18.0 0.00 0.80 0.80 67 1014.9
20260904142016 67 270 7.0 16.0 0.00 0.80 0.80 68 1015.0
20260904141016 67 270 8.0 17.0 0.00 0.80 0.80 68 1015.0
20260904140015 66 270 11.0 20.0 0.00 0.80 0.80 66 1014.8
20260904135015 67 270 10.0 15.0 0.00 0.80 0.80 66 1014.8
20260904134015 67 270 10.0 21.0 0.00 0.80 0.80 65 1014.9
20260904133035 67 0 10.0 17.0 0.00 0.80 0.80 65 1014.9
20260904132015 67 270 9.0 16.0 0.00 0.80 0.80 64 1014.9
20260904131015 67 270 9.0 19.0 0.00 0.80 0.80 64 1014.8
20260904130015 67 293 10.0 21.0 0.00 0.80 0.80 66 1014.7
20260904125015 67 270 7.0 14.0 0.00 0.80 0.80 65 1014.7
20260904124015 67 270 9.0 17.0 0.00 0.80 0.80 67 1014.5
20260904123015 66 270 8.0 15.0 0.00 0.80 0.80 68 1014.5
20260904122017 65 293 7.0 16.0 0.00 0.80 0.80 70 1014.4
20260904121017 65 293 5.0 13.0 0.00 0.80 0.80 71 1014.5
20260904120017 65 293 9.0 17.0 0.00 0.80 0.80 70 1014.4
20260904115017 66 270 7.0 13.0 0.00 0.80 0.80 71 1014.2
20260904114017 65 270 6.0 14.0 0.00 0.80 0.80 71 1014.1
20260904113017 64 270 8.0 15.0 0.00 0.80 0.80 73 1013.9
20260904112017 65 270 9.0 17.0 0.00 0.80 0.80 71 1013.8
20260904111017 65 270 7.0 14.0 0.00 0.80 0.80 73 1013.9
20260904110017 64 270 9.0 17.0 0.00 0.80 0.80 73 1013.7
20260904105017 64 270 8.0 15.0 0.00 0.80 0.80 73 1013.5
20260904104017 64 270 8.0 17.0 0.00 0.80 0.80 75 1013.4
20260904103017 64 270 7.0 13.0 0.00 0.80 0.80 77 1013.5
20260904102017 63 293 9.0 17.0 0.00 0.80 0.80 78 1013.6
20260904101037 63 270 9.0 15.0 0.00 0.80 0.80 79 1013.6
20260904100017 62 270 7.0 14.0 0.00 0.80 0.80 81 1013.4
20260904095017 62 270 7.0 15.0 0.00 0.80 0.80 82 1013.3
20260904094017 61 270 8.0 20.0 0.00 0.80 0.80 83 1012.8
20260904093017 61 270 7.0 16.0 0.00 0.80 0.80 85 1012.7
20260904092017 61 270 8.0 17.0 0.00 0.80 0.80 85 1012.3
20260904091017 62 270 6.0 13.0 0.00 0.80 0.80 87 1012.2
20260904090037 61 270 7.0 14.0 0.00 0.80 0.80 90 1012.2
20260904085017 61 270 7.0 14.0 0.00 0.80 0.80 92 1012.0
20260904084019 61 270 7.0 12.0 0.00 0.80 0.80 93 1012.2
20260904083017 61 270 7.0 15.0 0.00 0.80 0.80 94 1012.2
20260904082039 61 270 6.0 15.0 0.00 0.80 0.80 95 1012.3
20260904081037 61 270 5.0 13.0 0.00 0.80 0.80 95 1011.9
20260904080016 61 270 5.0 10.0 0.00 0.80 0.80 96 1011.7
20260904075017 61 270 6.0 10.0 0.01 0.80 0.80 96 1011.5
20260904074016 61 270 5.0 13.0 0.02 0.80 0.80 96 1011.3
20260904073036 61 270 6.0 11.0 0.02 0.80 0.80 96 1011.4
20260904072017 61 270 6.0 12.0 0.02 0.80 0.80 97 1011.1
20260904071016 61 270 5.0 10.0 0.03 0.80 0.80 97 1011.1
20260904070016 61 270 8.0 14.0 0.06 0.80 0.80 97 1011.1
20260904065037 61 248 6.0 14.0 0.08 0.79 0.79 97 1010.9
20260904064016 61 270 7.0 14.0 0.09 0.78 0.78 96 1010.5
20260904063016 61 270 9.0 22.0 0.11 0.77 0.77 96 1010.4
20260904062016 62 270 7.0 15.0 0.13 0.77 0.77 97 1010.2
20260904061036 62 270 6.0 10.0 0.15 0.76 0.76 98 1010.4
20260904060016 62 270 6.0 11.0 0.18 0.74 0.74 98 1010.2
20260904055016 62 270 8.0 12.0 0.17 0.71 0.71 97 1010.2
20260904054016 62 270 8.0 14.0 0.22 0.69 0.69 97 1009.9
20260904053016 63 270 7.0 13.0 0.30 0.66 0.66 97 1009.7
20260904052016 63 293 8.0 15.0 0.42 0.65 0.65 97 1009.5
20260904051016 63 270 9.0 18.0 0.51 0.61 0.61 98 1009.6
20260904050016 65 293 7.0 15.0 0.50 0.56 0.56 99 1009.6
20260904045016 65 270 4.0 9.0 0.48 0.54 0.54 99 1009.5
20260904044036 65 270 5.0 9.0 0.42 0.46 0.46 98 1009.5
20260904043016 65 270 4.0 9.0 0.34 0.36 0.36 98 1009.4
20260904042056 65 225 5.0 11.0 0.21 0.23 0.23 98 1009.4
20260904041016 65 293 5.0 10.0 0.10 0.10 0.10 98 1009.4
20260904040056 66 225 6.0 15.0 0.06 0.06 0.06 97 1009.4
20260904035036 66 203 7.0 17.0 0.06 0.06 0.06 97 1009.3
20260904034036 65 225 8.0 19.0 0.05 0.05 0.05 97 1009.2
20260904033016 66 225 11.0 23.0 0.02 0.02 0.02 96 1009.1
20260904032036 66 225 10.0 18.0 0.02 0.02 0.02 95 1009.2
20260904031016 66 225 12.0 24.0 0.00 0.00 0.00 94 1009.2
20260904030016 66 225 12.0 21.0 0.00 0.00 0.00 94 1009.5
20260904025016 66 203 13.0 26.0 0.00 0.00 0.00 93 1009.6
20260904024016 67 225 10.0 21.0 0.00 0.00 0.00 91 1009.5
20260904023016 67 203 13.0 28.0 0.00 0.00 0.00 89 1009.7
20260904022036 67 225 13.0 24.0 0.00 0.00 0.00 89 1009.6
20260904021036 67 203 13.0 33.0 0.00 0.00 0.00 89 1009.7
20260904020016 67 203 14.0 25.0 0.00 0.00 0.00 88 1009.9
20260904015016 67 225 13.0 33.0 0.00 0.00 0.00 88 1010.1
20260904014016 67 203 14.0 23.0 0.00 0.00 0.00 88 1010.3
20260904013036 67 203 15.0 31.0 0.00 0.00 0.00 88 1010.4
20260904012036 66 203 16.0 28.0 0.00 0.00 0.00 88 1010.2
20260904011016 66 203 16.0 28.0 0.00 0.00 0.00 88 1010.5
20260904010016 66 225 17.0 37.0 0.00 0.00 0.00 87 1010.7
20260904005016 66 203 16.0 29.0 0.00 0.00 0.00 88 1011.2
20260904004016 66 203 12.0 22.0 0.00 0.00 0.00 89 1011.3
20260904003036 66 203 14.0 31.0 0.00 0.00 0.00 89 1011.4
20260904002016 65 203 11.0 19.0 0.00 0.00 0.00 89 1011.7
20260904001016 65 203 13.0 25.0 0.00 0.00 0.00 88 1011.7
20260904000015 65 225 10.0 19.0 0.00 0.00 0.00 87 1011.9
20260903235016 65 203 8.0 16.0 0.00 0.00 0.00 85 1012.2
20260903234016 65 203 7.0 15.0 0.00 0.00 0.00 84 1012.6
20260903233016 65 203 9.0 17.0 0.00 0.00 0.00 83 1012.9
20260903232016 64 203 7.0 12.0 0.00 0.00 0.00 82 1013.2
20260903231015 64 203 7.0 14.0 0.00 0.00 0.00 82 1013.4
20260903230036 65 203 8.0 16.0 0.00 0.00 0.00 81 1013.8
20260903225016 65 225 7.0 16.0 0.00 0.00 0.00 80 1013.9
20260903224016 65 225 6.0 17.0 0.00 0.00 0.00 80 1014.0
20260903223036 65 225 6.0 18.0 0.00 0.00 0.00 80 1014.2
20260903222015 65 203 6.0 19.0 0.00 0.00 0.00 79 1014.2
20260903221015 65 225 7.0 18.0 0.00 0.00 0.00 78 1014.2
20260903220015 65 203 6.0 15.0 0.00 0.00 0.00 77 1014.8
20260903215015 66 225 6.0 16.0 0.00 0.00 0.00 76 1014.8
20260903214035 66 203 5.0 10.0 0.00 0.00 0.00 76 1014.7
20260903213016 66 225 4.0 8.0 0.00 0.00 0.00 75 1015.1
20260903212015 66 248 5.0 11.0 0.00 0.00 0.00 75 1014.9
20260903211036 66 203 5.0 17.0 0.00 0.00 0.00 76 1015.3
20260903210015 66 225 4.0 11.0 0.00 0.00 0.00 76 1015.3
20260903205036 67 225 3.0 8.0 0.00 0.00 0.00 77 1015.2
20260903204015 67 248 5.0 11.0 0.00 0.00 0.00 76 1015.4
20260903203015 67 225 4.0 9.0 0.00 0.00 0.00 76 1015.3
20260903202015 67 225 6.0 15.0 0.00 0.00 0.00 75 1015.4
20260903201035 67 248 5.0 13.0 0.00 0.00 0.00 74 1015.6
20260903200015 67 248 5.0 10.0 0.00 0.00 0.00 74 1015.6
20260903195015 68 248 5.0 11.0 0.00 0.00 0.00 73 1015.8
20260903194015 68 270 5.0 10.0 0.00 0.00 0.00 72 1015.7
20260903193109 68 248 4.0 10.0 0.00 0.00 0.00 71 1015.7
20260903192515 68 270 5.0 15.0 0.00 0.00 0.00 71 1015.6
20260903191535 69 270 6.0 11.0 0.00 0.00 0.00 70 1015.8
20260903190535 69 225 4.0 10.0 0.00 0.00 0.00 69 1015.9
20260903185515 69 248 6.0 16.0 0.00 0.00 0.00 68 1016.0
20260903184517 69 248 4.0 12.0 0.00 0.00 0.00 66 1016.1
20260903183517 70 225 7.0 19.0 0.00 0.00 0.00 65 1016.1
20260903182517 70 248 6.0 13.0 0.00 0.00 0.00 65 1016.2
20260903181517 71 225 8.0 21.0 0.00 0.00 0.00 64 1016.0
20260903180517 71 248 4.0 14.0 0.00 0.00 0.00 63 1016.0
20260903175517 71 225 8.0 16.0 0.00 0.00 0.00 63 1015.8
20260903174517 72 248 3.0 10.0 0.00 0.00 0.00 65 1015.9